DL1NER Weather Reports


time (UTC)temp
C
wind
direction
speed
KPH
gust
KPH
rain 1hr
cm
rain 24hr
cm
rain mn
cm
humidity
%
barometer
mb
20260902022014 11 259 0.0 0.0 0.00 0.00 0.00 85 1021.3
20260902021014 11 259 0.0 0.0 0.00 0.00 0.00 85 1021.4
20260902020014 11 259 0.0 0.0 0.00 0.00 0.00 85 1021.3
20260902015014 11 259 0.0 0.0 0.00 0.00 0.00 85 1021.4
20260902014014 11 259 0.0 0.0 0.00 0.00 0.00 84 1021.3
20260902013013 11 259 0.0 0.0 0.00 0.00 0.00 83 1021.3
20260902012014 11 259 0.0 0.0 0.00 0.00 0.00 83 1021.3
20260902011014 11 259 0.0 0.0 0.00 0.00 0.00 81 1021.2
20260902010014 11 259 0.0 0.0 0.00 0.00 0.00 81 1021.4
20260902005013 11 259 0.0 0.0 0.00 0.00 0.00 79 1021.3
20260902004013 11 259 0.0 0.0 0.00 0.00 0.00 77 1021.3
20260902003013 11 259 0.0 0.0 0.00 0.00 0.00 77 1021.3
20260902002013 12 259 0.0 0.0 0.00 0.00 0.00 76 1021.3
20260902001013 12 259 0.0 0.0 0.00 0.00 0.00 76 1021.4
20260902000013 12 259 0.0 0.0 0.00 0.00 0.00 75 1021.4
20260901235013 12 259 0.0 0.0 0.00 0.00 0.00 75 1021.4
20260901234013 12 259 0.0 0.0 0.00 0.00 0.00 75 1021.3
20260901233013 12 259 0.0 0.0 0.00 0.00 0.00 74 1021.3
20260901232013 12 259 0.0 0.0 0.00 0.00 0.00 74 1021.3
20260901231013 13 259 0.0 0.0 0.00 0.00 0.00 73 1021.3
20260901230013 13 259 0.0 0.0 0.00 0.00 0.00 73 1021.3
20260901225013 13 259 0.0 0.0 0.00 0.00 0.00 73 1021.4
20260901224013 13 259 0.0 0.0 0.00 0.00 0.00 72 1021.3
20260901223013 13 259 0.0 0.0 0.00 0.00 0.00 72 1021.2
20260901222012 13 259 0.0 0.0 0.00 0.00 0.00 71 1021.2
20260901221013 13 259 0.0 0.0 0.00 0.00 0.00 71 1021.3
20260901220013 13 259 0.0 0.0 0.00 0.00 0.00 71 1021.2
20260901215013 13 259 0.0 0.0 0.00 0.00 0.00 71 1021.3
20260901214012 14 259 0.0 0.0 0.00 0.00 0.00 70 1021.2
20260901213012 14 259 0.0 0.0 0.00 0.00 0.00 69 1021.2
20260901212012 14 259 0.0 0.0 0.00 0.00 0.00 69 1021.3
20260901211012 15 259 0.0 0.0 0.00 0.00 0.00 69 1021.2
20260901210012 15 259 0.0 0.0 0.00 0.00 0.00 69 1021.2
20260901205013 15 259 0.0 1.6 0.00 0.00 0.00 68 1021.2
20260901204012 15 259 1.6 4.8 0.00 0.00 0.00 68 1021.1
20260901203012 15 259 0.0 0.0 0.00 0.00 0.00 67 1021.1
20260901202012 15 259 0.0 0.0 0.00 0.00 0.00 67 1021.1
20260901201012 15 259 0.0 0.0 0.00 0.00 0.00 67 1021.1
20260901200013 16 259 0.0 0.0 0.00 0.00 0.00 66 1021.1
20260901195013 16 259 1.6 4.8 0.00 0.00 0.00 65 1021.0
20260901194012 16 259 3.2 6.4 0.00 0.00 0.00 63 1021.0
20260901193013 17 259 3.2 4.8 0.00 0.00 0.00 62 1020.9
20260901192011 17 259 0.0 3.2 0.00 0.00 0.00 61 1020.8
20260901191012 17 259 0.0 4.8 0.00 0.00 0.00 60 1020.8
20260901190011 17 259 1.6 3.2 0.00 0.00 0.00 59 1020.5
20260901185013 17 259 1.6 3.2 0.00 0.00 0.00 59 1020.5
20260901184012 18 259 0.0 0.0 0.00 0.00 0.00 60 1020.5
20260901183011 18 259 0.0 0.0 0.00 0.00 0.00 57 1020.4
20260901182012 18 259 0.0 0.0 0.00 0.00 0.00 56 1020.4
20260901181012 18 259 1.6 3.2 0.00 0.00 0.00 55 1020.2
20260901180011 18 259 1.6 3.2 0.00 0.00 0.00 55 1020.3
20260901175012 19 259 1.6 3.2 0.00 0.00 0.00 54 1020.1
20260901174017 20 259 3.2 6.4 0.00 0.00 0.00 54 1020.0
20260901173013 20 259 3.2 6.4 0.00 0.00 0.00 54 1019.9
20260901171012 20 250 4.8 9.7 0.00 0.00 0.00 53 1019.7
20260901170012 21 300 4.8 11.3 0.00 0.00 0.00 53 1019.9
20260901165012 21 258 6.4 14.5 0.00 0.00 0.00 53 1019.9
20260901164012 21 270 6.4 17.7 0.00 0.00 0.00 52 1019.9
20260901163012 21 275 8.0 17.7 0.00 0.00 0.00 53 1020.0
20260901162013 21 273 4.8 11.3 0.00 0.00 0.00 53 1020.0
20260901161012 21 298 4.8 11.3 0.00 0.00 0.00 53 1020.1
20260901160012 21 271 6.4 16.1 0.00 0.00 0.00 53 1020.2
20260901155012 22 286 4.8 12.9 0.00 0.00 0.00 53 1020.1
20260901154012 22 269 6.4 14.5 0.00 0.00 0.00 51 1020.0
20260901153012 22 314 4.8 11.3 0.00 0.00 0.00 53 1020.0
20260901152012 21 317 4.8 11.3 0.00 0.00 0.00 53 1020.1
20260901151012 22 311 4.8 12.9 0.00 0.00 0.00 52 1020.1
20260901150013 22 298 6.4 14.5 0.00 0.00 0.00 52 1020.0
20260901145012 22 340 4.8 14.5 0.00 0.00 0.00 51 1020.0
20260901144012 22 293 1.6 6.4 0.00 0.00 0.00 51 1020.0
20260901143012 21 293 4.8 11.3 0.00 0.00 0.00 51 1020.0
20260901142012 21 257 3.2 12.9 0.00 0.00 0.00 53 1020.3
20260901141012 21 220 3.2 8.0 0.00 0.00 0.00 53 1020.3
20260901140012 21 260 3.2 8.0 0.00 0.00 0.00 54 1020.4
20260901135012 21 259 6.4 12.9 0.00 0.00 0.00 54 1020.5
20260901134012 22 259 3.2 11.3 0.00 0.00 0.00 54 1020.5
20260901133011 22 288 6.4 16.1 0.00 0.00 0.00 53 1020.6
20260901132012 22 273 6.4 14.5 0.00 0.00 0.00 52 1020.5
20260901131012 23 208 6.4 17.7 0.00 0.00 0.00 52 1020.5
20260901130011 23 286 4.8 12.9 0.00 0.00 0.00 52 1020.6
20260901125012 23 232 9.7 16.1 0.00 0.00 0.00 49 1020.7
20260901124011 23 199 8.0 17.7 0.00 0.00 0.00 50 1020.7
20260901123013 23 216 8.0 19.3 0.00 0.00 0.00 50 1020.7
20260901122011 22 265 6.4 16.1 0.00 0.00 0.00 52 1020.7
20260901121012 22 261 4.8 12.9 0.00 0.00 0.00 53 1020.9
20260901120012 22 212 6.4 19.3 0.00 0.00 0.00 55 1021.0
20260901115011 21 170 6.4 17.7 0.00 0.00 0.00 54 1021.0
20260901114012 22 250 8.0 19.3 0.00 0.00 0.00 54 1021.0
20260901113012 21 263 6.4 16.1 0.00 0.00 0.00 56 1021.1
20260901112011 21 217 9.7 17.7 0.00 0.00 0.00 56 1021.1
20260901111012 21 269 8.0 19.3 0.00 0.00 0.00 54 1021.2
20260901105011 21 232 9.7 22.5 0.00 0.00 0.00 52 1021.2
20260901104012 21 232 9.7 22.5 0.00 0.00 0.00 52 1021.2
20260901103010 21 221 11.3 25.7 0.00 0.00 0.00 56 1021.1
20260901102012 21 264 11.3 22.5 0.00 0.00 0.00 55 1021.2
20260901101010 21 275 8.0 25.7 0.00 0.00 0.00 55 1021.1
20260901100011 21 274 11.3 22.5 0.00 0.00 0.00 59 1021.2
20260901095010 20 272 9.7 24.1 0.00 0.00 0.00 56 1021.2
20260901094011 20 256 9.7 27.4 0.00 0.00 0.00 59 1021.2
20260901093011 20 282 9.7 24.1 0.00 0.00 0.00 57 1021.3
20260901092010 20 306 11.3 25.7 0.00 0.00 0.00 59 1021.2
20260901091010 20 261 8.0 20.9 0.00 0.00 0.00 60 1021.3
20260901090011 20 242 9.7 22.5 0.00 0.00 0.00 62 1021.2
20260901085017 19 256 12.9 20.9 0.00 0.00 0.00 63 1021.3
20260901084011 19 167 8.0 22.5 0.00 0.00 0.00 63 1021.3
20260901083010 18 219 6.4 19.3 0.00 0.00 0.00 64 1021.3
20260901082011 18 219 4.8 19.3 0.00 0.00 0.00 64 1021.3
20260901081010 18 226 8.0 16.1 0.00 0.00 0.00 67 1021.2
20260901080011 18 226 11.3 16.1 0.00 0.00 0.00 67 1021.2
20260901075009 17 259 4.8 14.5 0.00 0.00 0.00 68 1021.2
20260901074010 17 259 4.8 14.5 0.00 0.00 0.00 68 1021.2
20260901073010 17 175 3.2 12.9 0.00 0.00 0.00 72 1020.9
20260901072011 17 175 3.2 12.9 0.00 0.00 0.00 72 1020.9
20260901071010 16 252 3.2 9.7 0.00 0.00 0.00 74 1020.9
20260901070010 15 227 1.6 9.7 0.00 0.00 0.00 74 1021.0
20260901065010 15 204 1.6 6.4 0.00 0.00 0.00 77 1021.0
20260901064010 15 204 3.2 6.4 0.00 0.00 0.00 79 1021.0
20260901063011 14 199 1.6 8.0 0.00 0.00 0.00 86 1021.0
20260901062010 13 200 1.6 8.0 0.00 0.00 0.00 90 1021.0
20260901061009 13 198 0.0 3.2 0.00 0.00 0.00 90 1020.9
20260901060009 13 198 0.0 1.6 0.00 0.00 0.00 89 1020.9
20260901055010 13 198 0.0 6.4 0.00 0.00 0.00 89 1020.9
20260901054010 12 198 1.6 3.2 0.00 0.00 0.00 90 1021.0
20260901053009 12 198 1.6 3.2 0.00 0.00 0.00 89 1020.8
20260901052010 12 198 0.0 1.6 0.00 0.00 0.00 88 1020.8
20260901051009 12 198 0.0 0.0 0.00 0.00 0.00 88 1020.7
20260901050009 12 198 0.0 0.0 0.00 0.00 0.00 88 1020.7
20260901045009 12 198 1.6 4.8 0.00 0.00 0.00 86 1020.8
20260901044008 12 197 1.6 4.8 0.00 0.00 0.00 86 1020.7
20260901043008 12 197 1.6 4.8 0.00 0.00 0.00 86 1020.7
20260901042011 12 197 0.0 3.2 0.00 0.00 0.00 85 1020.6
20260901041010 12 197 0.0 3.2 0.00 0.00 0.00 85 1020.6
20260901040015 12 197 1.6 4.8 0.00 0.00 0.00 84 1020.6
20260901035008 12 196 1.6 4.8 0.00 0.00 0.00 81 1020.4
20260901034008 12 196 1.6 4.8 0.00 0.00 0.00 81 1020.4
20260901033008 13 196 1.6 4.8 0.00 0.00 0.00 80 1020.3
20260901032008 13 196 1.6 3.2 0.00 0.00 0.00 78 1020.1
20260901031008 13 196 1.6 4.8 0.00 0.00 0.00 77 1020.2
20260901030008 13 196 1.6 6.4 0.00 0.00 0.00 77 1020.1
20260901025008 13 196 3.2 4.8 0.00 0.00 0.00 77 1020.1
20260901024008 13 195 1.6 4.8 0.00 0.00 0.00 77 1020.1